| time (UTC) | temp C | wind direction | speed KPH | gust KPH | rain 1hr cm | rain 24hr cm | rain mn cm | humidity % | barometer mb |
| 20260504100312 | 36 | 114 | 0.0 | 0.0 | 0.00 | 0.00 | 0.20 | 52 | 980.0 |
| 20260504081812 | 35 | 183 | 4.8 | 4.8 | 0.00 | 0.00 | 0.20 | 59 | 982.0 |
| 20260504081311 | 35 | 165 | 3.2 | 3.2 | 0.00 | 0.00 | 0.20 | 59 | 982.0 |
| 20260504080811 | 34 | 125 | 3.2 | 4.8 | 0.00 | 0.00 | 0.20 | 60 | 982.0 |
| 20260504080312 | 34 | 156 | 3.2 | 4.8 | 0.00 | 0.00 | 0.20 | 61 | 982.0 |
| 20260504070311 | 33 | 134 | 3.2 | 3.2 | 0.00 | 0.00 | 0.20 | 63 | 983.0 |
| 20260504050311 | 32 | 144 | 3.2 | 3.2 | 0.00 | 0.00 | 0.20 | 58 | 985.0 |
| 20260504045811 | 32 | 117 | 0.0 | 1.6 | 0.00 | 0.00 | 0.20 | 57 | 985.0 |
| 20260504045312 | 31 | 160 | 1.6 | 1.6 | 0.00 | 0.00 | 0.20 | 61 | 985.0 |
| 20260504044811 | 31 | 179 | 3.2 | 3.2 | 0.00 | 0.00 | 0.20 | 60 | 985.0 |
| 20260504044311 | 31 | 155 | 1.6 | 1.6 | 0.00 | 0.00 | 0.20 | 62 | 985.0 |
| 20260504043811 | 31 | 168 | 3.2 | 3.2 | 0.00 | 0.00 | 0.20 | 62 | 985.0 |
| 20260504043311 | 31 | 128 | 0.0 | 0.0 | 0.00 | 0.00 | 0.20 | 64 | 985.0 |
| 20260504042811 | 30 | 179 | 1.6 | 1.6 | 0.00 | 0.00 | 0.20 | 64 | 985.0 |
| 20260504042312 | 30 | 120 | 0.0 | 0.0 | 0.00 | 0.00 | 0.20 | 65 | 985.0 |
| 20260504041812 | 30 | 118 | 0.0 | 0.0 | 0.00 | 0.00 | 0.20 | 66 | 985.0 |
| 20260504041311 | 30 | 119 | 0.0 | 0.0 | 0.00 | 0.00 | 0.20 | 67 | 985.0 |
| 20260504040811 | 30 | 135 | 1.6 | 3.2 | 0.00 | 0.00 | 0.20 | 66 | 985.0 |
| 20260504040311 | 30 | 191 | 1.6 | 1.6 | 0.00 | 0.00 | 0.20 | 65 | 985.0 |
| 20260504035811 | 30 | 115 | 1.6 | 3.2 | 0.00 | 0.00 | 0.20 | 67 | 985.0 |
| 20260504035312 | 29 | 162 | 3.2 | 3.2 | 0.00 | 0.00 | 0.20 | 68 | 985.0 |
| 20260504034811 | 29 | 198 | 1.6 | 3.2 | 0.00 | 0.00 | 0.20 | 68 | 986.0 |
| 20260504034312 | 30 | 159 | 1.6 | 3.2 | 0.00 | 0.00 | 0.20 | 66 | 986.0 |
| 20260504033811 | 29 | 153 | 4.8 | 4.8 | 0.00 | 0.00 | 0.20 | 67 | 985.0 |
| 20260504033312 | 29 | 162 | 1.6 | 1.6 | 0.00 | 0.00 | 0.20 | 70 | 985.0 |
| 20260504032812 | 29 | 161 | 1.6 | 1.6 | 0.00 | 0.00 | 0.20 | 68 | 985.0 |
| 20260504032312 | 29 | 141 | 0.0 | 1.6 | 0.00 | 0.00 | 0.20 | 69 | 985.0 |
| 20260504031812 | 28 | 115 | 0.0 | 0.0 | 0.00 | 0.00 | 0.20 | 73 | 985.0 |
| 20260504031311 | 28 | 98 | 1.6 | 1.6 | 0.00 | 0.00 | 0.20 | 72 | 985.0 |
| 20260504030812 | 28 | 122 | 0.0 | 0.0 | 0.00 | 0.00 | 0.20 | 73 | 985.0 |
| 20260504030311 | 27 | 119 | 1.6 | 1.6 | 0.00 | 0.00 | 0.20 | 75 | 985.0 |
| 20260504025812 | 27 | 112 | 0.0 | 0.0 | 0.00 | 0.00 | 0.20 | 75 | 985.0 |
| 20260504025311 | 27 | 113 | 1.6 | 1.6 | 0.00 | 0.00 | 0.20 | 74 | 985.0 |
| 20260504024811 | 27 | 112 | 1.6 | 1.6 | 0.00 | 0.00 | 0.20 | 75 | 985.0 |
| 20260504024311 | 27 | 132 | 0.0 | 0.0 | 0.00 | 0.00 | 0.20 | 77 | 985.0 |
| 20260504023812 | 27 | 155 | 0.0 | 1.6 | 0.00 | 0.00 | 0.20 | 76 | 985.0 |
| 20260504023312 | 26 | 110 | 1.6 | 1.6 | 0.00 | 0.00 | 0.20 | 78 | 985.0 |
| 20260504022812 | 26 | 100 | 0.0 | 1.6 | 0.00 | 0.00 | 0.20 | 79 | 985.0 |
| 20260504022312 | 26 | 33 | 1.6 | 3.2 | 0.00 | 0.00 | 0.20 | 80 | 985.0 |
| 20260504021811 | 26 | 90 | 1.6 | 1.6 | 0.00 | 0.00 | 0.20 | 80 | 985.0 |
| 20260504021311 | 26 | 111 | 0.0 | 1.6 | 0.00 | 0.00 | 0.20 | 80 | 985.0 |
| 20260504020811 | 26 | 119 | 1.6 | 1.6 | 0.00 | 0.00 | 0.20 | 80 | 984.0 |
| 20260504020311 | 26 | 122 | 0.0 | 1.6 | 0.00 | 0.00 | 0.20 | 81 | 984.0 |
| 20260504015811 | 26 | 105 | 0.0 | 1.6 | 0.00 | 0.00 | 0.20 | 81 | 984.0 |
| 20260504015311 | 25 | 53 | 1.6 | 3.2 | 0.00 | 0.00 | 0.20 | 80 | 984.0 |
| 20260504014812 | 26 | 84 | 3.2 | 3.2 | 0.00 | 0.00 | 0.20 | 81 | 984.0 |
| 20260504014311 | 25 | 115 | 0.0 | 0.0 | 0.00 | 0.00 | 0.20 | 80 | 984.0 |
| 20260504013811 | 26 | 47 | 3.2 | 4.8 | 0.00 | 0.00 | 0.20 | 79 | 984.0 |
| 20260504013311 | 26 | 140 | 0.0 | 0.0 | 0.00 | 0.00 | 0.20 | 80 | 984.0 |
| 20260504012812 | 25 | 129 | 0.0 | 0.0 | 0.00 | 0.00 | 0.20 | 81 | 984.0 |
| 20260504012312 | 25 | 117 | 1.6 | 1.6 | 0.00 | 0.00 | 0.20 | 81 | 984.0 |
| 20260504011811 | 25 | 136 | 0.0 | 0.0 | 0.00 | 0.00 | 0.20 | 82 | 984.0 |
| 20260504011312 | 25 | 188 | 3.2 | 4.8 | 0.00 | 0.00 | 0.20 | 83 | 983.0 |
| 20260504010811 | 25 | 134 | 1.6 | 1.6 | 0.00 | 0.00 | 0.20 | 84 | 984.0 |
| 20260504010311 | 25 | 137 | 0.0 | 0.0 | 0.00 | 0.00 | 0.20 | 85 | 984.0 |
| 20260504005811 | 24 | 132 | 0.0 | 0.0 | 0.00 | 0.00 | 0.20 | 85 | 983.0 |
| 20260504005311 | 24 | 135 | 0.0 | 0.0 | 0.00 | 0.00 | 0.20 | 85 | 983.0 |
| 20260504004811 | 24 | 130 | 0.0 | 0.0 | 0.00 | 0.00 | 0.20 | 85 | 984.0 |
| 20260504004311 | 24 | 128 | 0.0 | 0.0 | 0.00 | 0.00 | 0.20 | 85 | 984.0 |
| 20260504003811 | 24 | 115 | 0.0 | 0.0 | 0.00 | 0.00 | 0.20 | 84 | 983.0 |
| 20260503173812 | 21 | 88 | 1.6 | 1.6 | 0.43 | 0.00 | 2.51 | 93 | 987.0 |
| 20260503173311 | 21 | 63 | 3.2 | 3.2 | 1.19 | 0.00 | 2.51 | 93 | 987.0 |
| 20260503172812 | 22 | 128 | 1.6 | 1.6 | 1.55 | 0.00 | 2.49 | 93 | 987.0 |
| 20260503150813 | 30 | 143 | 1.6 | 3.2 | 0.00 | 0.00 | 0.23 | 75 | 982.0 |
| 20260503150311 | 29 | 126 | 1.6 | 1.6 | 0.00 | 0.00 | 0.23 | 76 | 982.0 |
| 20260503140313 | 35 | 190 | 6.4 | 11.3 | 0.00 | 0.00 | 0.00 | 49 | 981.0 |
| 20260503131312 | 37 | 189 | 1.6 | 3.2 | 0.00 | 0.00 | 0.00 | 43 | 980.0 |
| 20260503130812 | 37 | 224 | 8.0 | 9.7 | 0.00 | 0.00 | 0.00 | 42 | 980.0 |
| 20260503130311 | 37 | 223 | 1.6 | 3.2 | 0.00 | 0.00 | 0.00 | 42 | 980.0 |
| 20260503110813 | 39 | 175 | 8.0 | 9.7 | 0.00 | 0.00 | 0.00 | 38 | 979.0 |
| 20260503110312 | 39 | 164 | 1.6 | 1.6 | 0.00 | 0.00 | 0.00 | 38 | 979.0 |